Wind_Speed
27 27 30 31 30 31 31 30 30 30 28 28 31 34 35 34 33 32 30 29 27 26 25 24 23 22 22 21 21 20 18 19 22 23 27 25 22 20 15 15 16 13 16 19 18 17 17 16 16 16 15 14 11 13 12 9 10 6 3 3 2 3 3 6 7 7 4 2 6 10 14 10 4 7 7 5 6 6 7 11 9 9 9 7 4 5 15 20
27 28 29 29 30 31 30 30 30 29 26 26 29 33 35 34 33 31 30 29 27 26 25 25 24 23 23 22 21 19 19 20 21 25 27 23 19 17 14 15 16 14 16 19 19 17 18 19 18 18 17 14 10 13 11 8 8 4 3 3 2 5 4 5 9 10 3 2 9 11 12 11 5 8 10 4 4 5 5 9 10 10 12 11 6 5 13 19
26 29 30 28 30 31 29 30 29 28 26 25 28 32 33 33 33 31 29 28 27 26 25 25 24 24 23 22 21 20 20 17 20 27 25 21 18 15 15 16 16 15 16 19 18 16 16 18 20 19 17 12 9 12 10 7 6 2 4 3 4 6 3 3 7 9 3 2 10 12 10 10 6 8 10 5 3 3 6 9 11 12 13 14 11 8 12 18
25 30 31 30 31 30 29 29 28 27 25 25 28 31 32 33 33 31 30 29 27 27 26 25 24 24 23 22 22 20 17 12 18 26 22 20 18 15 16 17 16 14 16 18 17 15 15 17 20 19 14 8 8 11 8 6 6 3 5 3 4 5 3 2 5 6 4 3 9 12 10 7 6 9 10 7 3 3 10 13 13 13 11 12 13 11 12 18
26 30 31 30 31 31 30 28 26 26 25 26 29 31 32 32 32 31 30 29 28 27 26 26 25 24 23 22 21 18 13 5 11 21 19 19 18 16 18 18 16 14 16 18 17 17 16 18 20 17 10 6 7 8 5 6 7 4 2 1 4 5 3 2 4 5 6 5 10 12 9 7 8 8 10 10 6 5 9 12 13 13 10 9 12 13 13 17
28 30 30 30 32 32 29 27 26 25 26 28 30 31 32 31 31 31 30 29 28 27 27 27 26 24 23 23 20 18 15 4 4 13 17 18 18 18 20 17 15 15 16 17 18 18 17 20 19 14 8 5 5 5 5 8 7 3 0 1 6 5 4 3 3 6 8 8 11 13 8 8 9 6 8 13 14 9 4 4 6 10 12 11 11 13 14 15
30 31 30 29 30 30 27 27 27 26 27 29 31 31 31 31 31 30 30 29 28 28 28 27 25 24 24 22 20 18 19 11 3 8 17 17 19 20 19 16 14 15 17 18 19 19 21 24 19 14 10 5 3 5 8 9 5 4 1 3 6 5 4 3 3 6 8 9 10 12 9 6 8 5 4 13 20 15 9 5 2 4 9 13 13 14 14 14
30 31 30 27 27 29 26 27 27 26 27 29 31 31 31 31 31 30 30 30 29 29 28 27 25 24 23 22 21 16 19 18 5 5 17 17 19 21 18 16 15 15 18 18 19 21 24 25 20 15 8 3 6 7 9 8 2 3 3 5 7 5 5 6 6 8 6 8 10 10 8 4 7 6 5 13 17 14 15 15 11 7 5 11 14 14 14 15
28 28 28 26 27 29 27 27 26 25 26 28 29 30 31 31 31 30 30 30 29 28 26 26 23 23 23 22 20 12 15 20 7 4 15 18 19 20 17 15 16 18 19 18 19 20 22 24 21 15 6 6 10 9 11 8 0 3 7 9 8 6 6 8 8 8 7 9 10 8 4 2 4 4 8 15 15 14 16 16 17 15 9 9 13 14 14 15
27 25 26 26 27 29 27 26 24 23 25 27 28 30 30 31 31 30 30 29 28 27 25 24 23 22 22 22 17 8 12 18 9 5 13 18 19 20 17 16 18 18 18 19 18 17 20 22 20 16 10 10 11 7 9 5 2 9 14 13 10 8 7 6 7 9 9 8 6 6 3 2 3 2 6 8 7 10 14 15 15 16 13 9 11 15 15 15
26 23 25 26 28 28 27 26 24 23 25 27 29 29 30 30 30 29 28 28 27 26 24 23 22 21 21 21 16 8 10 14 9 7 13 18 19 19 17 16 18 17 17 19 18 16 16 17 18 15 8 9 11 7 6 5 7 16 18 13 8 7 8 6 7 8 7 5 3 5 3 2 3 2 6 7 5 5 8 12 13 14 14 11 11 15 17 17
25 24 24 25 26 27 27 26 24 24 25 28 29 29 30 29 29 28 27 27 26 24 23 22 21 20 20 19 18 13 9 10 9 9 14 18 18 18 16 17 18 16 16 17 17 14 12 17 17 11 9 14 11 5 6 8 11 13 12 7 5 5 6 6 4 3 3 3 3 5 1 2 2 6 7 6 8 8 7 10 12 13 14 12 11 14 17 18
26 25 25 24 24 25 26 25 24 25 26 27 28 29 29 28 28 27 26 25 24 23 21 21 19 19 19 14 16 16 8 7 9 10 16 19 17 17 17 17 18 16 16 16 16 13 13 18 15 10 17 17 8 7 10 10 11 7 5 4 3 4 3 5 5 2 3 3 4 5 1 5 7 9 8 6 8 8 9 10 12 14 15 14 12 12 15 18
26 26 26 24 24 25 25 25 26 26 25 27 27 29 28 28 27 25 25 24 23 22 20 19 18 18 18 11 10 16 12 7 8 10 17 19 17 18 17 17 17 16 16 15 15 13 13 16 13 12 17 14 13 15 10 6 6 4 3 2 3 2 3 5 5 2 3 2 3 5 2 6 8 7 5 9 11 9 10 10 11 14 15 16 15 14 15 16
25 24 25 25 24 24 24 26 27 25 25 27 28 28 28 27 25 24 24 23 22 21 20 19 19 18 15 8 6 13 15 10 9 12 17 19 18 19 18 16 16 16 16 15 15 14 14 14 12 13 13 15 19 13 5 4 4 3 3 0 2 3 4 6 5 4 2 2 1 4 2 6 8 6 2 4 8 9 11 10 9 12 14 16 17 16 17 17
22 22 25 26 26 25 25 26 26 26 26 27 27 27 26 24 22 22 22 21 20 20 19 19 20 17 9 6 6 11 16 12 10 14 17 18 17 19 18 16 16 16 16 15 14 15 15 13 12 14 13 13 12 7 5 4 4 4 3 3 2 3 2 4 3 5 3 1 1 1 3 3 3 3 3 3 1 2 6 8 8 10 12 15 17 18 19 19
20 22 25 27 27 26 26 26 27 28 28 27 26 24 23 20 20 21 20 19 18 17 18 17 19 15 5 6 8 10 16 15 13 16 18 18 17 18 19 18 18 18 17 16 15 15 15 11 12 10 7 5 3 5 6 2 2 1 2 3 2 3 2 2 1 4 5 1 1 2 2 6 5 5 5 5 5 7 8 9 9 10 12 13 16 19 20 21
20 22 25 27 27 27 27 27 27 28 27 26 24 22 20 18 18 19 18 19 19 17 15 15 17 10 5 10 11 11 18 17 15 17 18 19 17 18 19 18 19 19 18 15 12 12 10 7 8 5 4 4 2 5 6 4 6 6 3 4 1 1 3 3 3 2 5 2 2 1 3 9 10 11 15 13 10 12 14 14 14 14 14 14 14 16 18 21
20 22 25 26 25 27 27 27 27 26 26 26 24 24 21 19 18 17 20 22 20 13 7 16 20 6 3 14 14 13 17 17 17 19 19 19 18 18 17 17 21 21 17 10 5 7 8 6 6 5 3 3 5 6 7 8 8 9 6 5 5 4 4 5 4 3 2 2 3 4 5 8 9 9 16 17 11 11 15 16 17 16 16 16 16 16 16 19
18 20 24 25 24 26 26 27 27 26 27 27 29 28 23 21 14 11 21 23 16 7 1 19 26 4 3 16 19 16 18 18 18 20 20 20 21 20 17 19 19 15 10 5 3 4 6 5 4 5 7 8 7 6 6 5 8 9 6 5 4 4 2 3 4 4 2 2 3 3 3 8 10 9 16 20 13 11 17 19 19 18 17 19 18 19 19 19
17 17 21 24 24 24 25 28 27 27 29 28 33 28 22 24 12 9 21 14 8 5 2 19 25 4 4 18 22 20 20 16 16 21 20 21 23 18 15 15 11 5 1 3 6 4 5 5 6 6 7 7 6 7 8 7 8 6 6 5 2 2 2 2 2 3 3 1 2 3 4 9 10 9 15 18 10 11 17 17 19 19 18 20 20 21 22 21
18 16 19 23 25 24 24 28 27 30 31 31 36 27 24 28 14 16 24 9 5 5 4 20 20 4 8 18 21 22 19 11 13 20 21 23 23 14 11 9 6 4 1 3 7 4 3 4 7 6 8 9 6 6 9 8 7 6 4 5 2 2 2 2 2 3 4 1 3 3 4 9 10 9 14 16 13 15 18 17 19 20 21 23 23 25 25 24
18 16 17 21 25 24 24 27 29 33 34 35 37 26 25 27 12 18 23 9 7 4 5 21 17 6 12 16 19 19 15 10 11 19 21 23 20 13 12 8 5 6 3 4 6 5 5 4 5 9 12 11 7 5 10 8 5 4 4 5 3 2 1 1 2 3 3 2 1 1 3 7 7 6 9 11 11 14 15 15 16 17 20 23 23 24 25 25
18 16 16 20 24 24 25 28 29 33 36 36 34 24 26 25 14 19 18 7 5 3 6 18 14 9 12 15 17 13 12 11 12 18 20 21 18 12 12 8 6 6 3 6 8 7 4 4 5 11 7 9 8 5 8 7 3 1 3 6 4 4 4 3 2 1 2 3 2 2 3 6 4 5 7 5 5 7 8 8 9 8 11 15 15 16 17 19
18 17 16 19 21 22 26 27 28 33 36 36 31 24 26 23 17 20 12 6 2 2 5 12 9 9 11 13 15 12 11 10 12 19 19 19 18 11 8 6 6 4 3 6 8 5 2 1 7 10 4 7 9 4 5 7 4 0 3 6 7 8 7 3 2 4 3 3 3 4 2 5 4 5 6 4 7 8 7 7 6 4 4 6 8 10 12 13
19 17 17 18 18 22 26 24 28 35 35 35 30 24 26 24 21 19 7 5 2 1 4 8 7 9 11 11 15 14 9 5 11 19 19 17 16 11 8 4 3 3 5 6 5 2 1 1 4 7 7 7 7 5 6 5 7 2 4 5 7 8 9 7 5 4 2 1 2 3 2 4 6 6 6 4 7 9 8 8 9 9 7 5 4 6 7 8
20 18 18 17 16 24 29 25 31 37 33 32 29 26 27 26 24 17 4 4 2 4 6 5 6 11 11 11 16 13 5 6 12 14 16 16 13 11 9 3 3 3 4 5 3 1 3 3 3 6 7 6 6 5 6 6 8 3 2 6 9 9 9 7 6 5 2 2 2 4 3 1 5 6 6 4 6 8 7 7 9 11 11 10 8 5 3 1
23 20 18 17 16 26 30 26 34 39 32 30 28 26 27 27 24 13 4 2 2 4 6 3 6 11 13 15 16 9 7 12 10 8 14 15 10 8 5 4 6 4 1 4 4 1 3 5 6 6 6 4 5 4 5 8 6 2 3 6 7 8 8 6 6 4 1 1 2 5 3 1 5 6 5 5 4 7 6 6 6 9 12 13 13 12 12 12
24 21 19 17 18 28 28 24 33 36 30 29 27 26 28 27 20 7 4 3 2 3 4 5 7 10 13 13 9 6 9 8 4 7 14 12 8 5 4 6 10 8 5 4 5 2 1 4 6 6 5 5 3 1 1 4 4 4 6 7 7 7 6 5 5 4 3 2 3 4 3 1 4 6 4 3 2 5 5 5 5 5 10 12 13 14 16 18
24 22 20 20 24 31 26 20 29 31 28 30 27 28 31 24 12 5 2 4 3 2 3 6 7 8 12 9 3 3 5 2 4 12 11 7 7 7 9 11 11 8 5 7 5 1 1 2 2 2 3 5 5 5 5 4 8 12 8 7 7 6 5 4 3 4 4 2 5 4 3 0 2 6 4 1 2 4 3 1 3 3 9 12 12 14 17 19
22 23 23 25 29 30 23 22 30 31 29 30 28 30 27 12 4 4 4 3 3 2 2 3 4 7 12 8 3 2 3 3 4 10 7 4 6 8 9 8 5 6 4 5 4 4 4 4 1 1 5 8 8 7 8 6 9 9 4 5 6 4 4 4 4 3 3 3 5 4 2 1 2 4 3 3 4 4 5 4 3 3 8 11 10 13 16 19
20 26 27 29 30 26 19 24 32 31 29 29 31 30 18 5 2 5 4 4 4 3 4 4 3 6 10 6 4 3 3 2 2 5 5 3 4 5 4 4 4 4 1 3 2 3 3 1 2 2 3 5 6 6 5 4 4 5 5 7 5 2 2 2 3 1 2 5 3 2 2 2 5 7 5 6 7 6 7 7 5 4 5 9 10 13 16 19
22 30 31 30 27 21 18 24 31 31 30 32 31 21 8 3 8 6 4 5 3 2 5 5 3 7 10 7 4 3 3 2 3 2 2 3 4 3 0 2 5 5 3 5 4 2 1 3 2 3 2 4 3 6 4 1 0 4 5 6 5 3 3 2 3 2 3 4 3 3 2 1 4 6 8 10 8 7 8 9 8 6 4 6 10 14 18 22
27 30 30 27 22 16 18 26 31 30 31 34 26 11 4 6 7 4 6 5 1 2 3 5 6 8 8 5 5 5 3 2 2 3 2 4 5 4 2 2 2 5 4 3 3 4 3 3 3 2 2 3 2 3 5 5 4 2 2 5 5 5 5 4 4 3 3 2 2 3 2 3 3 3 6 8 7 7 9 11 11 6 2 7 12 17 20 23
29 28 27 24 19 16 19 28 30 29 33 31 17 6 7 8 3 4 7 5 1 2 3 5 9 9 4 2 1 4 2 1 2 3 3 4 6 6 5 4 5 4 6 5 2 2 3 3 3 2 1 3 3 2 3 6 3 1 1 5 3 4 5 4 3 5 4 1 1 2 3 4 4 4 5 4 6 7 8 10 10 6 4 11 16 18 21 24
30 30 26 22 19 17 21 28 27 29 33 24 9 6 8 4 2 4 7 5 5 7 8 5 5 6 4 2 1 4 0 3 4 3 2 3 2 5 5 4 6 5 4 6 3 1 3 1 3 4 3 2 1 2 2 3 3 2 2 3 4 4 7 6 2 1 3 1 2 1 3 5 3 4 5 1 3 4 3 5 9 8 9 15 18 19 21 23
30 30 26 22 20 17 22 27 25 28 29 16 7 8 4 1 3 4 4 6 9 12 12 7 2 4 6 4 5 7 3 3 4 3 3 3 2 5 5 3 6 8 5 4 2 3 5 2 3 2 2 2 2 5 7 6 4 4 3 5 4 3 5 5 2 3 4 1 3 1 3 4 1 2 5 3 6 5 3 5 7 9 14 18 19 19 21 22
31 30 25 23 21 17 21 24 23 26 21 8 6 5 1 1 2 2 3 7 10 9 8 7 3 3 7 7 6 8 7 5 5 4 4 3 4 6 9 5 5 9 9 4 2 2 5 3 3 2 2 2 3 4 5 6 6 4 5 4 4 3 2 2 3 2 1 2 4 3 3 3 3 4 3 2 7 7 5 5 6 10 17 21 20 19 21 23
27 25 18 21 23 18 20 22 21 22 14 5 7 4 1 2 0 1 5 7 7 6 5 6 2 2 5 7 7 8 7 7 8 6 4 4 4 5 9 6 3 8 10 6 3 2 4 4 1 1 1 1 3 1 5 1 5 5 3 3 2 2 4 2 2 4 3 3 2 3 3 3 6 6 5 7 8 7 7 5 6 13 20 24 23 22 23 22
20 14 9 19 26 19 19 21 18 15 7 4 6 3 0 2 1 1 6 5 3 3 3 4 3 4 4 4 5 6 5 5 9 7 4 5 4 3 7 7 5 7 7 4 3 2 3 3 3 1 3 1 2 2 6 7 3 3 3 4 1 2 2 1 1 2 3 4 3 2 3 5 6 5 7 8 6 6 8 7 9 16 22 24 23 23 24 20
14 6 4 18 25 22 23 19 10 6 3 2 3 2 1 2 3 2 4 4 3 3 3 4 4 5 5 4 4 5 4 4 7 6 2 5 6 4 8 11 11 10 6 4 3 3 2 3 5 3 1 3 3 3 3 4 4 5 5 6 6 4 4 3 2 1 2 3 4 4 3 7 6 3 5 6 5 6 7 7 13 20 24 24 23 24 22 17
10 3 5 15 21 26 25 13 2 2 3 3 3 3 3 3 3 3 2 3 4 3 3 4 3 3 4 4 3 5 6 4 5 5 3 6 8 5 7 13 17 18 11 4 2 3 3 4 5 2 3 4 3 3 2 3 1 3 3 3 5 4 5 6 5 3 2 2 2 3 1 7 6 4 5 6 7 7 6 8 15 22 25 23 21 23 20 15
8 3 7 15 18 25 21 5 1 3 1 2 3 4 4 3 3 3 1 2 2 2 3 2 2 2 2 3 4 6 8 4 5 6 3 3 5 3 6 15 20 17 9 3 2 3 3 4 4 1 2 2 4 4 2 1 1 2 3 2 5 3 3 5 5 4 4 4 3 3 2 6 5 4 5 7 7 6 6 11 18 23 24 21 19 21 18 12
9 5 7 13 16 20 13 2 3 5 1 2 3 3 2 2 3 3 2 1 1 2 3 2 1 2 2 3 4 7 8 4 4 6 2 2 3 2 8 21 22 13 8 7 9 9 5 2 5 3 2 3 4 4 3 3 1 3 3 3 4 4 6 4 2 4 2 5 7 5 4 7 5 4 3 3 1 3 7 13 19 20 20 17 17 20 15 9
8 5 4 10 13 13 5 2 5 5 3 4 4 3 3 3 2 3 4 3 2 3 3 2 2 3 3 3 4 4 6 3 3 5 2 2 2 2 6 18 18 10 5 7 13 14 7 3 5 6 6 6 5 4 4 3 3 2 2 4 6 6 8 5 3 4 3 5 6 6 5 5 5 4 3 2 2 4 7 12 16 16 16 17 17 16 12 10
5 2 2 6 9 8 2 6 8 6 4 6 4 3 4 2 1 2 5 3 1 3 4 2 2 4 3 4 5 4 6 1 2 4 4 3 2 2 2 9 12 6 1 5 17 16 4 1 6 8 10 10 8 6 3 5 6 3 3 7 8 7 8 6 5 4 5 3 4 7 5 4 5 4 3 4 4 6 8 13 16 14 15 16 15 13 10 10
2 1 2 3 5 5 1 5 7 5 5 7 4 4 5 4 2 1 2 1 2 3 3 2 2 3 4 7 5 4 6 2 3 3 4 4 2 2 3 3 6 5 2 7 16 12 4 3 7 7 10 7 5 5 3 6 8 8 7 9 9 8 8 7 7 8 6 6 7 9 7 7 8 7 7 7 6 6 10 19 20 15 13 12 11 10 10 9
2 2 2 2 2 2 1 6 8 5 5 6 4 4 7 5 3 3 1 1 1 2 1 2 0 2 6 8 6 4 6 3 2 2 2 2 2 2 3 3 2 3 2 5 8 6 4 5 6 5 8 4 3 4 5 7 7 7 10 12 11 11 11 12 14 11 9 8 11 6 11 11 9 7 9 10 12 14 18 22 20 14 12 11 9 9 9 8
3 4 3 2 2 0 1 8 12 6 4 6 3 4 8 9 8 5 3 2 0 1 2 2 2 3 5 5 4 5 6 5 4 3 3 3 3 3 2 2 1 2 3 4 3 2 3 4 4 6 7 4 2 3 4 6 5 5 9 12 13 14 16 17 18 14 12 13 9 7 11 13 8 8 11 13 16 16 14 17 17 14 11 10 9 9 9 7
3 3 3 5 4 2 3 10 12 7 4 6 4 3 7 11 11 6 2 3 4 2 2 4 3 4 4 3 4 3 4 5 5 5 6 5 3 3 3 4 3 2 2 3 2 2 3 3 3 6 4 5 3 3 3 4 4 4 6 8 10 14 15 17 17 13 10 11 5 6 6 10 5 7 11 11 13 11 11 16 20 15 10 9 9 9 7 6
5 5 5 6 3 2 1 5 7 6 4 6 5 3 6 11 12 8 2 2 3 4 5 6 5 3 3 3 3 3 3 5 7 7 8 7 6 5 3 4 7 6 4 4 3 2 4 2 2 5 4 5 2 3 5 5 5 1 4 8 12 13 13 14 11 7 9 11 7 4 7 9 5 8 12 11 11 12 15 20 20 14 11 10 11 10 9 9
7 6 5 5 1 2 1 2 4 5 3 5 5 2 4 7 10 10 5 3 2 4 5 8 8 4 3 2 3 6 11 14 15 15 13 11 10 9 7 6 9 8 6 5 3 1 5 5 2 4 6 4 4 3 7 7 4 3 8 12 16 14 12 8 4 4 10 11 8 8 11 8 8 12 11 8 7 12 17 21 22 19 14 12 12 12 12 10
Wind_Direction
203 201 195 191 190 193 195 197 196 194 193 190 186 186 187 188 190 190 189 191 193 193 193 196 199 201 202 199 212 224 220 223 231 234 233 235 234 232 233 221 207 191 189 191 190 187 181 181 175 166 169 171 164 153 142 140 142 132 104 88 139 178 195 185 180 185 163 176 189 181 178 168 170 188 180 175 198 222 220 212 213 213 206 181 157 157 178 181
202 196 186 187 193 193 194 196 193 190 189 187 186 185 185 185 187 188 188 190 192 193 194 198 199 201 202 202 210 217 218 225 233 238 236 233 231 226 223 213 200 187 187 193 192 189 184 180 170 166 172 167 152 148 144 141 138 114 100 112 199 199 200 188 179 179 151 118 170 171 179 179 182 180 177 185 207 202 211 217 219 225 218 207 200 180 185 187
198 190 184 188 192 190 193 194 192 188 183 184 186 185 184 185 187 188 189 190 193 195 197 199 198 198 197 198 204 210 216 227 237 239 234 226 225 218 212 205 192 183 188 195 194 193 191 180 167 168 172 158 143 149 143 138 145 112 109 121 239 208 195 191 180 179 174 125 159 164 175 183 195 180 181 194 192 202 221 220 218 225 222 215 215 205 193 194
189 186 184 189 191 190 191 192 191 186 181 183 185 184 185 186 187 189 190 191 193 196 197 197 195 193 193 196 200 205 211 228 245 240 230 219 217 207 201 196 185 182 189 194 197 196 191 181 171 170 167 142 135 149 142 142 162 140 125 160 220 179 142 169 180 184 188 155 161 162 163 186 204 187 189 183 152 251 242 232 227 228 222 212 215 215 203 199
183 185 187 192 191 188 189 189 186 182 182 184 184 185 186 187 188 189 190 191 193 194 193 192 190 190 191 195 198 198 195 220 251 235 225 215 208 197 193 189 183 184 187 193 197 189 183 181 177 172 159 128 131 142 139 143 146 127 115 175 151 138 116 144 163 178 180 157 160 158 156 187 191 191 201 188 184 233 244 243 240 238 233 222 220 219 209 203
186 187 189 195 193 188 187 185 181 182 183 185 185 187 187 187 189 190 191 190 189 188 188 188 188 188 191 193 194 189 184 194 268 217 212 207 199 189 186 187 185 185 188 193 190 181 178 179 178 172 142 109 138 140 148 153 147 138 317 132 124 107 94 127 161 170 178 167 162 162 167 183 175 196 214 209 221 228 243 258 241 243 235 229 229 225 220 210
189 190 191 196 193 184 183 184 183 182 182 185 187 187 187 187 188 189 188 185 183 184 185 186 187 188 189 189 189 188 196 219 292 196 195 194 192 185 183 187 188 190 189 186 184 179 176 176 178 168 131 98 154 136 142 150 142 125 131 161 130 92 78 101 149 151 170 177 169 169 170 177 181 199 225 228 234 233 237 241 236 268 236 226 229 230 231 225
191 193 194 197 191 178 181 188 184 181 182 185 186 185 185 185 186 185 183 181 182 183 184 185 186 187 187 187 186 188 207 222 261 195 185 184 187 184 181 187 190 192 187 184 184 179 175 176 174 162 128 108 159 142 141 135 77 93 132 160 132 100 89 88 118 131 145 163 161 164 164 177 196 210 249 246 246 242 242 246 250 270 254 226 226 230 232 230
192 194 195 198 191 179 183 187 180 181 183 183 183 182 182 182 183 182 181 182 181 182 183 184 185 186 186 189 186 189 214 216 233 204 182 181 184 181 180 187 190 190 185 184 187 183 178 175 173 169 154 148 146 142 152 143 277 162 133 141 128 104 102 100 112 119 123 141 155 158 135 148 189 229 264 257 259 256 248 249 249 252 259 234 224 229 232 232
193 194 195 195 190 183 183 182 178 180 181 180 181 180 181 181 181 182 182 182 181 181 182 182 183 185 187 188 184 190 216 212 221 213 184 181 182 180 181 186 188 187 184 185 188 189 184 178 174 168 153 147 139 137 156 150 173 147 122 113 106 99 101 107 115 115 118 121 150 167 136 131 153 193 258 255 267 262 247 244 245 244 247 242 228 227 231 235
193 196 196 192 189 187 183 178 177 179 179 180 180 180 181 181 180 181 182 182 181 180 180 181 182 184 188 188 186 194 212 209 212 207 186 182 182 181 183 185 186 186 185 187 186 186 187 180 167 158 152 152 140 119 133 128 130 135 123 101 69 86 90 81 106 114 117 105 122 151 135 97 115 190 242 241 256 286 251 236 237 236 237 238 232 226 228 232
192 195 196 193 191 189 183 177 176 178 178 179 180 181 181 180 179 180 182 182 182 180 179 179 179 183 186 191 200 204 205 202 203 203 189 183 182 182 184 183 185 185 186 189 184 179 180 174 163 153 151 150 140 110 126 127 124 125 121 107 11 38 64 39 57 95 111 107 117 117 87 291 211 224 237 237 245 269 264 238 233 229 231 233 233 228 227 231
192 196 198 197 194 190 183 177 177 177 177 178 180 181 181 180 179 179 181 181 181 180 178 176 177 181 182 190 207 208 206 200 200 198 188 185 183 183 184 182 183 183 183 188 185 177 169 174 175 148 141 144 131 124 133 118 115 112 89 108 45 27 12 6 20 32 107 110 144 136 260 271 256 246 235 235 239 249 254 246 237 229 228 230 232 231 228 229
191 196 197 195 193 189 183 180 178 176 177 178 180 181 181 180 179 178 179 180 181 179 175 173 174 178 183 190 206 208 210 205 204 196 186 186 184 181 181 180 181 180 177 178 181 174 162 173 176 140 133 135 123 120 115 68 82 103 67 67 71 137 256 331 15 24 118 136 165 144 221 263 269 269 232 237 240 238 248 247 241 235 229 230 233 234 232 231
192 194 191 190 189 187 184 183 180 176 177 178 180 182 182 180 178 176 177 180 179 176 172 170 172 175 184 196 204 207 209 212 208 191 182 184 184 181 177 175 176 173 168 164 169 165 156 167 160 126 115 125 125 115 73 28 32 42 105 355 352 157 246 319 15 32 109 173 132 127 220 271 271 266 201 231 234 233 248 253 250 243 235 233 234 236 238 238
190 191 188 187 186 184 184 183 181 178 178 179 180 182 182 179 175 174 177 178 176 173 168 167 173 172 174 196 197 200 203 208 202 184 179 178 181 181 173 168 168 166 161 156 158 155 151 155 133 112 114 125 125 105 71 53 7 0 100 171 234 161 242 315 11 14 37 169 344 88 221 266 282 239 154 135 169 224 258 260 256 253 248 241 238 239 240 241
185 186 188 186 183 184 183 183 182 180 179 178 180 180 178 174 171 171 173 173 170 166 165 167 172 172 179 200 192 192 195 198 191 179 174 170 176 180 170 162 161 163 159 152 151 149 146 142 124 115 110 107 108 106 99 59 254 270 50 113 202 179 184 282 277 347 21 103 267 9 246 245 260 267 246 238 271 292 287 279 271 261 255 248 243 242 241 242
183 184 186 184 183 183 182 183 182 180 178 175 176 175 169 166 165 167 167 164 157 151 156 164 163 168 225 205 191 191 191 189 180 172 170 168 169 173 168 160 159 159 151 143 146 144 135 117 117 120 50 57 123 120 137 197 182 177 161 130 159 204 204 248 233 302 18 67 232 312 268 261 272 284 276 267 271 280 280 280 277 269 261 256 250 246 243 244
183 184 184 183 183 183 182 180 180 179 173 169 169 163 157 155 152 156 161 158 153 143 156 175 168 156 224 191 186 184 180 177 172 168 168 166 162 168 166 157 159 156 143 134 141 139 125 99 101 123 117 158 186 158 171 191 163 160 160 139 149 167 226 248 245 287 23 112 239 238 245 273 282 287 282 277 276 274 276 278 275 272 266 261 256 250 247 245
186 186 184 185 183 182 180 177 177 175 169 168 166 156 149 147 137 147 162 161 162 152 129 178 175 153 90 169 175 170 163 164 169 166 165 164 162 163 157 151 153 147 139 140 149 136 118 122 145 171 181 182 177 145 140 143 127 132 123 107 139 152 206 244 262 312 39 148 250 255 264 281 277 276 278 279 282 273 271 272 271 269 264 261 259 253 249 247
189 188 185 187 184 181 180 176 173 170 167 169 168 163 160 158 146 164 164 155 169 162 108 173 176 184 130 161 166 162 153 154 166 166 164 164 162 160 155 151 143 120 133 123 116 111 106 146 198 207 183 158 141 123 107 95 88 99 122 126 132 165 192 224 244 322 18 162 259 348 317 277 269 270 272 275 276 264 263 263 266 267 263 261 259 256 253 251
193 193 188 189 185 181 179 175 169 165 165 168 170 172 174 170 169 173 163 135 136 142 129 168 174 179 150 158 159 157 152 142 160 168 165 164 164 169 165 149 127 124 178 108 105 102 119 189 226 194 140 107 86 92 95 87 85 84 109 126 146 212 216 277 286 337 15 151 266 349 338 280 270 267 269 268 260 261 266 263 264 267 264 261 258 259 260 258
195 196 192 193 187 181 178 173 166 163 167 171 173 173 174 175 180 171 161 126 122 107 129 165 172 157 146 156 159 158 154 139 158 170 168 168 169 171 161 138 112 132 152 157 142 140 163 247 227 161 138 111 79 79 96 87 82 88 110 128 172 227 166 203 253 330 19 81 259 305 309 286 286 291 280 270 260 266 272 268 266 267 265 265 263 265 266 263
193 196 198 194 188 183 177 170 166 167 172 174 173 171 171 175 177 163 149 95 108 87 137 164 170 160 151 157 164 165 157 145 158 168 169 172 166 158 155 136 117 131 150 160 142 140 176 280 160 142 132 118 108 102 114 107 78 64 144 141 166 192 172 192 197 43 14 32 38 27 322 295 315 322 292 295 304 287 285 282 279 277 272 272 272 270 267 265
188 197 200 189 186 185 175 169 171 173 175 174 172 169 168 171 168 159 139 66 102 68 129 161 164 162 161 162 169 167 149 139 154 164 170 173 163 148 143 131 127 151 163 135 119 131 192 290 145 135 110 120 121 135 160 137 111 158 207 173 169 166 154 150 112 80 47 9 2 24 347 287 319 315 273 309 342 314 314 330 336 346 316 291 284 276 269 268
187 198 198 186 185 182 172 172 176 176 175 174 171 165 167 167 160 159 137 56 160 201 139 163 161 167 172 166 163 152 136 140 157 164 169 171 168 154 138 113 82 142 165 136 117 137 152 77 129 130 129 130 128 164 195 147 119 165 215 162 144 131 125 134 123 93 104 192 342 41 137 256 318 310 272 311 326 306 321 349 9 30 29 11 333 298 281 272
189 198 199 194 193 181 173 176 179 177 176 173 168 164 166 164 160 164 126 44 209 178 142 156 159 171 177 163 157 150 144 161 152 162 167 166 172 160 153 159 73 123 170 131 126 183 118 107 88 104 117 122 137 182 210 149 129 183 197 129 129 123 130 143 115 97 171 205 338 19 104 212 301 279 275 324 321 310 336 344 1 32 43 48 50 51 60 109
187 196 202 202 201 185 177 180 181 176 173 169 165 165 164 160 163 164 104 93 196 137 140 163 152 165 166 158 159 146 134 145 139 169 169 159 166 152 150 185 137 126 136 125 170 236 105 158 174 139 123 143 173 218 198 136 111 235 183 124 129 124 125 124 98 98 44 44 295 331 34 182 266 275 302 355 331 310 333 320 331 23 44 53 62 74 86 96
189 197 203 201 193 183 180 185 184 174 165 163 163 163 160 158 160 144 78 161 163 96 139 149 143 159 155 149 151 121 125 136 117 160 160 151 161 143 118 153 133 107 51 80 150 192 70 180 185 147 139 173 183 330 168 121 99 162 141 98 85 78 82 86 88 105 56 49 230 287 3 202 264 285 307 12 319 271 284 287 298 10 43 51 62 79 90 97
196 199 197 191 182 180 183 186 180 170 159 163 165 160 157 155 149 121 138 190 145 90 136 144 153 160 148 133 78 78 112 90 105 133 139 131 137 121 109 123 118 101 43 41 88 199 325 119 126 100 135 156 133 62 34 72 127 137 121 80 70 41 38 53 50 86 71 333 247 259 307 289 275 282 265 213 222 219 202 239 286 9 47 52 65 84 94 99
194 193 186 183 180 177 182 181 173 167 162 164 162 156 153 143 109 141 180 172 122 100 110 143 161 151 152 148 122 112 73 39 124 134 133 108 111 113 111 114 95 78 47 42 50 339 8 71 42 75 123 126 111 65 41 69 114 117 99 97 87 13 11 27 1 43 97 250 256 262 275 149 209 260 261 243 250 220 180 179 232 324 35 51 73 91 97 101
184 181 175 177 177 173 178 178 168 163 163 162 158 156 148 111 154 180 171 146 147 182 172 181 197 161 162 146 122 152 106 79 172 138 139 130 123 140 138 160 149 96 109 168 100 1 41 59 326 59 146 151 117 83 48 18 40 76 106 116 102 19 19 7 315 347 198 235 265 265 219 185 231 250 258 260 258 238 218 216 237 289 14 52 84 100 102 103
167 168 169 172 172 169 175 172 164 162 163 160 157 153 125 127 190 184 152 164 187 189 152 149 151 151 153 137 139 169 92 106 197 143 126 126 131 167 246 164 142 115 174 176 126 94 39 310 310 94 218 226 152 123 134 255 185 131 142 135 133 120 102 230 259 294 251 249 278 269 246 248 266 264 245 238 242 237 235 244 261 287 1 60 102 109 107 106
154 158 164 167 168 176 177 167 163 163 162 160 155 141 118 178 190 142 146 192 252 49 99 120 120 131 142 144 178 179 80 49 178 111 88 118 133 181 219 221 145 92 108 141 143 158 161 263 231 157 204 200 174 159 151 139 130 166 168 129 146 155 146 195 209 189 221 255 295 283 259 188 203 259 227 221 252 255 242 250 257 267 22 95 118 116 111 106
154 158 160 163 172 185 179 168 164 163 163 160 150 148 182 188 193 139 158 186 185 84 70 107 126 135 139 47 227 198 119 109 170 103 120 159 163 185 185 195 198 133 123 153 194 166 154 229 263 309 299 149 160 213 129 104 110 230 113 105 158 181 136 138 174 172 167 127 311 257 239 216 215 265 264 254 269 255 233 238 238 228 120 122 128 121 114 108
166 164 162 166 176 180 176 173 168 165 166 161 148 185 198 187 186 180 160 150 152 135 113 103 115 137 150 63 264 237 320 116 160 140 166 189 184 189 187 191 191 180 156 153 158 154 150 247 319 352 8 54 118 198 101 99 157 158 115 165 209 161 115 115 153 59 83 146 260 226 250 294 312 283 300 358 195 222 208 196 198 183 145 136 134 124 117 113
164 162 162 169 176 175 176 177 172 170 170 167 172 191 195 149 175 179 139 129 143 139 131 142 171 152 159 163 188 201 178 120 155 167 171 190 219 187 190 217 188 189 199 154 156 196 151 118 339 27 75 6 34 93 66 44 89 124 170 195 179 117 98 108 122 23 43 216 277 287 233 287 334 260 325 64 159 219 225 161 165 166 151 143 136 127 122 116
156 158 160 169 176 175 176 178 176 174 171 169 187 184 115 145 184 175 142 133 138 141 144 158 168 156 167 174 182 185 179 163 169 178 162 186 244 191 174 192 188 190 201 162 121 183 129 106 331 11 126 292 348 91 85 28 39 108 169 158 115 134 164 98 126 136 103 212 277 305 271 260 202 217 287 174 183 217 212 154 142 160 155 147 140 131 126 119
154 153 148 166 175 170 172 178 176 171 169 179 188 182 115 156 206 164 156 139 129 136 157 168 150 134 171 171 165 173 186 177 165 174 174 181 237 203 173 176 180 189 193 164 141 173 113 116 216 303 265 270 2 97 177 179 28 51 111 117 77 125 161 158 143 158 168 183 244 309 320 260 225 215 213 207 208 208 190 164 162 169 160 150 143 134 128 120
151 141 126 163 170 168 167 170 168 166 176 197 175 162 116 145 114 148 153 150 125 104 163 180 145 140 160 165 159 165 181 174 166 179 196 178 197 225 193 181 152 168 175 124 123 159 96 121 163 313 321 214 174 218 194 176 143 103 128 158 169 77 120 159 91 113 139 154 181 243 295 269 245 212 202 213 223 205 185 169 170 170 159 150 143 137 130 118
145 125 120 155 162 166 161 158 162 166 167 164 142 132 161 145 132 130 131 132 94 60 127 143 134 145 148 149 166 164 148 150 170 180 190 186 196 222 206 187 157 150 145 91 129 164 126 137 146 138 230 193 219 258 213 185 172 161 172 180 172 141 121 145 241 244 121 135 166 168 247 271 256 204 206 216 217 220 210 181 170 167 157 149 142 139 133 116
146 106 148 152 158 164 157 150 157 105 109 157 144 124 140 129 122 136 118 95 80 59 85 100 106 132 141 147 152 152 148 147 176 186 194 203 202 206 202 182 162 155 152 131 158 158 116 107 115 144 207 205 257 293 232 230 207 143 189 184 155 150 134 149 204 220 123 116 148 122 232 275 263 210 216 236 241 246 241 195 174 163 155 150 145 144 139 118
152 106 154 155 157 162 157 141 85 109 93 187 123 88 116 121 108 136 130 68 77 65 68 84 117 123 145 158 139 157 166 159 181 191 195 202 194 198 182 168 160 157 149 132 157 149 123 105 108 80 312 314 321 343 11 330 66 146 236 185 155 180 145 145 180 166 137 164 148 85 289 269 273 253 243 255 254 245 210 181 173 164 156 153 151 150 144 122
135 106 151 160 159 164 167 176 168 151 147 150 106 76 98 93 97 130 143 131 122 117 110 123 151 126 151 146 134 170 181 172 195 197 182 179 180 163 169 168 165 163 169 180 177 172 178 153 126 118 37 4 350 355 338 314 242 203 226 188 166 125 93 98 115 103 137 199 160 145 234 252 275 300 297 292 247 196 178 170 167 161 155 154 153 152 149 134
121 102 150 171 170 171 164 104 139 138 128 132 128 138 119 57 53 114 120 107 99 124 128 145 140 111 124 119 97 155 178 146 168 183 159 179 181 71 163 178 178 176 191 191 168 161 171 181 150 149 161 182 197 204 222 223 190 205 203 178 176 143 137 151 113 115 219 220 162 170 223 254 281 309 333 349 104 140 163 165 163 157 151 151 149 148 153 153
126 104 138 168 186 196 136 103 123 124 143 147 135 160 150 101 44 95 102 94 82 103 91 97 134 98 100 131 114 160 192 104 66 161 157 167 205 10 130 185 190 184 196 172 160 152 133 226 184 183 194 196 192 194 178 125 141 183 180 170 174 168 164 141 106 168 199 151 181 215 195 195 247 256 257 245 186 162 170 174 174 167 156 150 145 145 153 155
115 143 136 126 177 200 166 135 140 124 149 159 153 178 170 140 105 82 73 81 170 142 73 47 129 126 153 159 138 166 188 138 64 136 135 143 181 4 52 141 180 183 128 157 162 145 88 216 202 202 212 203 164 175 161 129 159 176 162 163 173 172 161 151 186 206 146 126 232 231 175 190 232 230 229 229 203 192 193 186 182 176 164 154 146 148 154 155
88 112 136 111 152 189 179 168 163 134 140 158 145 159 169 162 160 164 119 28 141 167 103 50 327 190 169 164 150 151 163 152 156 161 118 121 135 66 46 55 131 170 122 147 169 138 116 201 207 196 211 203 115 165 170 146 159 165 164 172 173 171 172 186 212 207 148 184 237 197 166 206 225 212 222 219 200 196 194 188 182 173 167 160 153 158 162 166
92 96 97 90 110 140 113 146 152 144 153 163 143 150 170 182 191 176 107 81 95 255 159 153 224 208 173 161 138 144 165 166 176 191 155 135 130 115 106 82 125 173 130 126 173 155 145 197 186 169 205 218 158 185 175 146 140 152 179 182 172 177 187 197 214 209 185 215 231 148 179 220 214 199 217 217 209 201 188 186 188 182 173 164 165 176 176 174
101 101 111 100 82 63 126 141 148 153 162 169 182 192 177 186 193 183 122 141 170 199 165 166 188 170 152 134 109 129 185 169 161 189 176 153 163 176 172 175 163 151 138 138 164 191 184 210 154 137 195 247 211 172 146 132 137 163 191 192 181 188 197 206 218 210 198 229 224 125 219 250 228 215 226 220 215 204 184 194 201 195 183 177 182 187 186 186
105 92 116 119 75 3 132 138 147 152 162 178 188 190 186 195 192 177 186 234 188 177 165 154 148 120 97 107 113 118 140 125 122 149 153 144 161 176 190 186 160 146 159 164 152 162 174 189 75 111 175 252 268 150 136 86 67 98 215 204 194 197 203 211 215 185 184 217 208 162 252 256 192 201 227 224 211 202 200 206 208 205 197 194 199 200 193 188
118 98 112 128 78 344 7 100 146 153 162 173 167 165 194 195 181 169 180 272 238 200 187 163 151 127 106 177 194 142 120 106 99 104 102 94 101 105 95 124 146 149 163 157 129 142 157 151 125 142 178 256 323 128 129 92 71 264 244 208 196 202 206 202 212 200 198 203 192 203 238 232 161 176 209 221 209 212 217 216 213 214 212 206 205 201 194 188
Height
1444 1446 1449 1451 1454 1456 1458 1460 1462 1464 1466 1468 1470 1473 1476 1479 1482 1485 1488 1491 1494 1496 1498 1501 1504 1506 1508 1511 1514 1515 1517 1518 1517 1516 1514 1515 1517 1519 1520 1521 1521 1522 1524 1525 1527 1528 1529 1531 1532 1534 1535 1537 1538 1538 1540 1541 1543 1544 1549 1553 1555 1560 1557 1554 1557 1556 1554 1554 1555 1557 1557 1559 1560 1562 1563 1564 1564 1565 1565 1565 1566 1566 1567 1567 1567 1568 1568 1570
1442 1444 1447 1450 1452 1455 1457 1459 1461 1463 1465 1467 1469 1471 1475 1478 1481 1484 1486 1490 1492 1495 1497 1500 1503 1505 1508 1510 1513 1515 1516 1517 1516 1513 1512 1515 1517 1518 1519 1520 1520 1521 1523 1525 1526 1527 1528 1530 1531 1533 1535 1536 1537 1538 1540 1541 1542 1545 1551 1553 1553 1556 1552 1550 1552 1552 1553 1553 1554 1556 1557 1559 1560 1561 1563 1563 1564 1564 1565 1565 1565 1565 1566 1567 1567 1568 1568 1569
1439 1443 1446 1448 1451 1453 1455 1457 1459 1462 1464 1466 1468 1470 1473 1476 1479 1482 1485 1488 1491 1494 1496 1499 1501 1504 1507 1510 1512 1515 1516 1516 1514 1510 1511 1514 1515 1516 1518 1518 1519 1520 1522 1524 1526 1527 1528 1530 1531 1533 1534 1535 1536 1538 1539 1541 1543 1544 1549 1551 1550 1551 1550 1550 1551 1551 1552 1552 1554 1556 1557 1559 1560 1561 1562 1563 1564 1564 1564 1563 1564 1564 1564 1565 1567 1568 1568 1569
1438 1441 1445 1447 1450 1452 1454 1456 1458 1460 1463 1465 1466 1469 1472 1475 1478 1481 1484 1487 1490 1493 1495 1498 1500 1504 1507 1509 1512 1514 1515 1516 1510 1508 1511 1513 1513 1515 1516 1518 1518 1519 1521 1524 1525 1527 1528 1530 1531 1532 1533 1535 1536 1537 1539 1541 1543 1544 1546 1548 1549 1549 1550 1551 1551 1551 1552 1553 1554 1555 1558 1559 1560 1561 1562 1562 1564 1564 1562 1561 1562 1562 1563 1564 1566 1567 1567 1568
1437 1440 1443 1445 1448 1450 1452 1455 1457 1459 1461 1463 1465 1468 1471 1474 1477 1480 1483 1486 1489 1492 1494 1497 1500 1503 1506 1508 1511 1513 1515 1516 1508 1506 1510 1511 1512 1514 1515 1517 1517 1518 1521 1523 1524 1526 1527 1529 1531 1532 1532 1534 1536 1537 1539 1541 1542 1544 1547 1547 1548 1549 1550 1550 1551 1551 1552 1553 1554 1555 1557 1558 1560 1561 1561 1562 1562 1561 1560 1560 1561 1562 1563 1564 1565 1566 1566 1567
1436 1439 1441 1444 1446 1449 1451 1454 1456 1458 1460 1462 1464 1467 1470 1473 1476 1479 1482 1485 1488 1490 1493 1496 1499 1503 1505 1508 1510 1511 1513 1511 1505 1505 1508 1509 1511 1513 1514 1516 1517 1518 1520 1522 1524 1524 1526 1528 1530 1531 1531 1534 1536 1537 1539 1541 1541 1543 1547 1548 1548 1549 1549 1550 1551 1551 1552 1553 1553 1555 1556 1558 1559 1559 1560 1560 1559 1559 1560 1560 1561 1561 1563 1563 1564 1565 1566 1566
1435 1437 1440 1443 1445 1448 1450 1452 1454 1456 1458 1460 1463 1466 1469 1472 1475 1478 1481 1484 1487 1490 1493 1495 1499 1502 1504 1506 1508 1509 1509 1506 1504 1505 1506 1508 1510 1512 1513 1515 1516 1518 1520 1521 1522 1523 1524 1526 1528 1529 1530 1534 1536 1537 1538 1540 1541 1542 1546 1548 1548 1549 1550 1550 1551 1551 1552 1553 1553 1555 1556 1558 1558 1559 1560 1558 1556 1558 1560 1560 1561 1561 1562 1563 1563 1564 1565 1566
1433 1436 1439 1442 1444 1447 1449 1451 1453 1455 1457 1459 1462 1465 1468 1471 1474 1477 1480 1483 1486 1489 1492 1495 1498 1500 1503 1505 1506 1507 1507 1505 1505 1505 1505 1507 1509 1511 1512 1514 1516 1518 1519 1521 1522 1522 1523 1525 1527 1528 1530 1533 1534 1537 1539 1540 1542 1542 1545 1548 1548 1549 1550 1550 1551 1552 1553 1553 1554 1555 1556 1558 1558 1559 1559 1556 1555 1558 1558 1559 1560 1560 1561 1562 1562 1563 1564 1565
1432 1435 1438 1440 1443 1445 1447 1450 1452 1454 1456 1459 1462 1465 1468 1470 1473 1477 1480 1483 1485 1488 1491 1494 1497 1499 1501 1503 1505 1506 1504 1504 1505 1504 1505 1507 1508 1510 1511 1513 1515 1518 1519 1521 1522 1523 1523 1523 1525 1526 1529 1532 1534 1536 1538 1539 1542 1542 1544 1547 1548 1549 1550 1551 1551 1552 1553 1554 1555 1556 1557 1558 1558 1559 1557 1554 1555 1556 1557 1557 1558 1559 1560 1560 1561 1563 1564 1564
1431 1434 1436 1439 1441 1444 1446 1448 1451 1453 1455 1458 1461 1464 1467 1469 1473 1476 1479 1482 1485 1487 1490 1493 1495 1498 1500 1501 1503 1504 1502 1503 1504 1504 1505 1506 1507 1509 1511 1513 1515 1517 1519 1520 1522 1522 1522 1522 1524 1525 1527 1531 1533 1536 1538 1539 1540 1542 1544 1547 1548 1550 1551 1551 1552 1553 1553 1555 1556 1556 1558 1558 1559 1559 1555 1553 1554 1554 1555 1556 1556 1557 1559 1559 1560 1561 1562 1564
1430 1433 1435 1437 1440 1442 1445 1447 1449 1452 1454 1457 1460 1463 1466 1469 1472 1475 1478 1481 1484 1487 1489 1492 1494 1496 1499 1500 1501 1501 1501 1502 1503 1503 1504 1505 1507 1509 1511 1513 1515 1517 1519 1520 1521 1522 1523 1523 1524 1525 1526 1530 1533 1537 1538 1539 1540 1542 1543 1546 1550 1550 1551 1552 1552 1553 1553 1555 1556 1556 1558 1558 1559 1558 1554 1552 1553 1553 1553 1554 1555 1556 1557 1558 1559 1560 1561 1562
1429 1432 1434 1436 1439 1441 1443 1446 1448 1451 1454 1457 1460 1462 1465 1468 1471 1475 1478 1481 1484 1486 1489 1491 1493 1496 1498 1499 1500 1500 1500 1501 1502 1503 1504 1505 1507 1509 1511 1513 1515 1517 1518 1520 1521 1522 1523 1523 1524 1524 1525 1528 1533 1537 1539 1540 1541 1542 1543 1546 1551 1551 1551 1553 1553 1554 1553 1555 1556 1556 1558 1558 1557 1554 1551 1552 1552 1552 1553 1553 1554 1555 1556 1557 1557 1558 1560 1561
1428 1430 1432 1435 1438 1440 1442 1445 1448 1450 1453 1456 1459 1462 1465 1468 1471 1474 1478 1481 1484 1486 1488 1490 1493 1495 1497 1498 1498 1499 1500 1500 1501 1502 1503 1505 1507 1509 1511 1513 1515 1517 1518 1519 1520 1521 1522 1523 1524 1524 1525 1528 1532 1535 1538 1541 1541 1543 1546 1547 1551 1552 1553 1554 1554 1554 1553 1555 1555 1557 1559 1555 1552 1552 1550 1552 1552 1552 1552 1552 1553 1553 1554 1555 1556 1557 1558 1559
1426 1428 1431 1434 1437 1439 1442 1444 1447 1450 1452 1455 1459 1462 1465 1468 1471 1474 1478 1481 1484 1486 1487 1490 1492 1494 1496 1497 1497 1498 1499 1500 1501 1502 1503 1505 1507 1509 1511 1513 1515 1516 1517 1519 1520 1521 1521 1523 1524 1524 1526 1529 1531 1535 1538 1542 1543 1546 1548 1551 1556 1556 1554 1554 1555 1555 1554 1555 1555 1557 1559 1554 1550 1551 1550 1551 1552 1552 1552 1552 1552 1552 1553 1554 1554 1555 1556 1558
1425 1427 1430 1433 1436 1438 1441 1443 1446 1449 1452 1455 1458 1461 1465 1468 1471 1474 1478 1481 1483 1485 1487 1489 1491 1494 1495 1496 1496 1497 1498 1499 1500 1501 1503 1505 1507 1509 1511 1512 1514 1516 1517 1518 1519 1520 1521 1523 1523 1525 1528 1530 1531 1535 1540 1544 1547 1550 1550 1555 1563 1559 1554 1555 1555 1556 1555 1555 1556 1556 1558 1554 1550 1550 1550 1551 1551 1552 1552 1552 1552 1551 1552 1553 1553 1554 1554 1556
1424 1427 1429 1432 1435 1437 1440 1443 1446 1448 1451 1454 1458 1462 1465 1469 1471 1474 1478 1481 1483 1485 1487 1488 1491 1493 1494 1495 1495 1496 1497 1499 1500 1501 1503 1505 1507 1509 1510 1512 1514 1515 1516 1517 1519 1520 1521 1522 1524 1526 1529 1531 1533 1535 1541 1547 1551 1554 1552 1554 1561 1559 1556 1556 1555 1557 1556 1556 1556 1555 1556 1552 1550 1549 1550 1551 1550 1551 1552 1551 1552 1551 1552 1552 1551 1552 1552 1554
1423 1425 1428 1431 1433 1436 1439 1442 1445 1447 1451 1454 1458 1462 1466 1469 1472 1475 1478 1480 1483 1485 1487 1488 1490 1493 1493 1493 1494 1494 1495 1497 1499 1501 1503 1505 1507 1509 1510 1511 1512 1514 1515 1517 1518 1519 1520 1522 1525 1527 1529 1533 1535 1534 1543 1552 1552 1554 1556 1557 1562 1561 1559 1556 1555 1557 1557 1557 1557 1557 1556 1551 1548 1549 1549 1550 1550 1550 1551 1550 1551 1551 1551 1551 1550 1550 1550 1551
1422 1424 1427 1430 1432 1435 1437 1441 1444 1447 1451 1455 1459 1463 1466 1469 1472 1474 1477 1480 1483 1485 1488 1488 1490 1493 1492 1490 1491 1492 1494 1496 1499 1500 1502 1504 1507 1509 1510 1510 1511 1513 1515 1516 1518 1519 1520 1523 1525 1528 1532 1535 1535 1533 1540 1548 1546 1549 1553 1554 1559 1562 1561 1558 1555 1557 1558 1557 1557 1558 1557 1551 1548 1548 1547 1548 1549 1549 1549 1549 1549 1549 1549 1549 1549 1548 1548 1548
1421 1424 1426 1429 1432 1434 1437 1440 1443 1447 1450 1454 1458 1461 1465 1469 1472 1475 1477 1479 1481 1483 1484 1484 1485 1488 1487 1486 1489 1491 1493 1496 1498 1500 1502 1504 1506 1508 1509 1510 1511 1512 1514 1516 1518 1519 1520 1523 1527 1530 1534 1535 1534 1532 1533 1537 1538 1543 1548 1549 1551 1554 1558 1560 1558 1559 1560 1558 1557 1557 1555 1551 1548 1548 1546 1545 1547 1547 1546 1546 1546 1546 1547 1547 1547 1546 1546 1546
1421 1423 1426 1428 1431 1433 1436 1439 1442 1446 1449 1452 1455 1458 1462 1466 1471 1475 1476 1477 1478 1478 1478 1478 1481 1483 1482 1484 1488 1491 1493 1496 1498 1499 1501 1503 1505 1507 1509 1510 1511 1512 1514 1516 1518 1520 1520 1524 1528 1529 1531 1532 1533 1534 1535 1537 1539 1543 1547 1549 1552 1552 1554 1559 1559 1560 1560 1557 1557 1559 1557 1554 1550 1547 1545 1543 1544 1545 1543 1543 1543 1543 1544 1544 1545 1544 1544 1544
1420 1423 1425 1428 1430 1433 1436 1438 1441 1445 1448 1451 1453 1455 1457 1459 1464 1468 1471 1475 1477 1477 1477 1478 1481 1482 1482 1484 1486 1489 1492 1495 1498 1499 1501 1503 1504 1506 1508 1509 1510 1513 1516 1517 1519 1520 1521 1525 1527 1527 1530 1532 1535 1538 1537 1539 1542 1544 1546 1548 1553 1555 1554 1558 1559 1559 1561 1557 1557 1561 1559 1552 1548 1545 1543 1542 1542 1541 1540 1540 1540 1540 1541 1541 1541 1541 1541 1542
1419 1422 1424 1427 1430 1432 1435 1437 1441 1444 1448 1450 1451 1453 1456 1458 1461 1463 1467 1472 1476 1477 1477 1478 1481 1482 1483 1485 1486 1488 1491 1494 1497 1499 1500 1502 1503 1505 1507 1509 1510 1514 1518 1518 1519 1523 1525 1526 1526 1529 1532 1535 1539 1540 1537 1539 1543 1545 1550 1550 1552 1556 1556 1558 1560 1560 1561 1557 1555 1560 1556 1547 1545 1543 1540 1539 1539 1537 1537 1537 1537 1538 1538 1538 1538 1538 1539 1539
1418 1420 1424 1426 1429 1432 1434 1437 1440 1443 1446 1447 1449 1452 1456 1460 1463 1465 1467 1471 1476 1478 1478 1479 1481 1483 1484 1485 1487 1488 1489 1492 1495 1497 1499 1500 1502 1504 1505 1508 1511 1515 1517 1517 1519 1524 1527 1526 1527 1530 1532 1532 1538 1540 1537 1540 1545 1547 1549 1550 1552 1557 1555 1553 1556 1560 1561 1559 1558 1558 1554 1546 1541 1540 1537 1536 1536 1534 1535 1535 1535 1536 1535 1534 1535 1535 1535 1535
1416 1419 1422 1425 1428 1431 1433 1437 1439 1442 1444 1446 1450 1452 1456 1460 1464 1466 1468 1471 1476 1478 1478 1480 1481 1483 1484 1486 1487 1489 1490 1491 1493 1496 1498 1499 1501 1503 1505 1508 1511 1515 1517 1517 1519 1522 1525 1528 1529 1531 1531 1531 1536 1540 1537 1538 1545 1551 1549 1546 1548 1553 1554 1553 1556 1558 1559 1561 1561 1556 1551 1544 1539 1538 1535 1534 1535 1533 1533 1533 1533 1534 1534 1532 1533 1533 1532 1532
1415 1418 1421 1424 1428 1430 1433 1436 1438 1440 1443 1446 1450 1452 1456 1460 1463 1466 1468 1473 1478 1479 1479 1480 1481 1483 1484 1485 1486 1488 1489 1491 1493 1495 1497 1499 1500 1503 1505 1507 1510 1515 1518 1519 1520 1522 1525 1530 1531 1530 1532 1532 1534 1537 1537 1536 1543 1549 1547 1545 1545 1547 1551 1555 1556 1555 1555 1558 1561 1560 1553 1545 1539 1536 1534 1535 1536 1533 1532 1533 1533 1532 1532 1531 1531 1530 1530 1530
1414 1417 1421 1424 1427 1429 1433 1435 1436 1440 1442 1446 1449 1452 1456 1459 1464 1466 1467 1475 1480 1479 1480 1480 1481 1482 1483 1485 1486 1488 1491 1492 1494 1495 1496 1499 1500 1501 1504 1508 1509 1514 1519 1519 1521 1524 1528 1532 1531 1530 1531 1532 1534 1536 1536 1537 1541 1544 1544 1547 1548 1547 1549 1553 1552 1552 1554 1557 1564 1566 1559 1551 1543 1533 1533 1539 1538 1532 1532 1533 1532 1532 1531 1530 1530 1529 1528 1528
1413 1417 1420 1424 1426 1428 1430 1431 1434 1438 1441 1445 1448 1452 1456 1458 1464 1464 1469 1484 1484 1475 1478 1480 1480 1481 1482 1485 1486 1487 1491 1492 1493 1495 1496 1497 1499 1500 1503 1508 1509 1513 1517 1517 1521 1525 1529 1532 1532 1531 1531 1533 1534 1534 1536 1537 1538 1540 1545 1549 1548 1545 1548 1551 1551 1552 1557 1560 1564 1566 1562 1559 1552 1537 1535 1542 1536 1529 1532 1533 1532 1532 1531 1530 1529 1528 1527 1527
1413 1417 1419 1423 1425 1427 1428 1430 1432 1435 1439 1444 1447 1452 1455 1458 1464 1463 1473 1493 1486 1471 1475 1479 1478 1480 1482 1484 1486 1486 1488 1489 1492 1496 1496 1497 1499 1499 1502 1507 1508 1512 1516 1515 1520 1526 1528 1529 1530 1529 1530 1532 1533 1534 1536 1535 1536 1543 1550 1551 1548 1548 1550 1552 1552 1554 1562 1562 1559 1564 1565 1562 1554 1539 1537 1542 1533 1528 1532 1534 1534 1533 1532 1531 1530 1529 1528 1527
1412 1416 1419 1422 1425 1427 1429 1430 1432 1436 1441 1445 1448 1452 1455 1459 1463 1464 1476 1488 1478 1469 1475 1477 1478 1481 1482 1484 1486 1487 1487 1489 1490 1494 1496 1497 1499 1499 1502 1506 1507 1512 1516 1515 1519 1526 1528 1528 1528 1527 1527 1530 1535 1539 1539 1535 1536 1545 1551 1551 1551 1554 1555 1555 1554 1554 1561 1562 1558 1568 1573 1563 1550 1537 1534 1538 1534 1532 1534 1534 1535 1533 1533 1532 1531 1530 1529 1528
1411 1414 1418 1421 1423 1426 1428 1430 1434 1438 1441 1445 1448 1452 1455 1460 1463 1473 1487 1481 1468 1471 1476 1476 1478 1480 1481 1484 1487 1488 1488 1490 1490 1492 1496 1497 1499 1500 1502 1506 1508 1511 1516 1518 1522 1527 1528 1527 1528 1529 1528 1531 1536 1540 1541 1538 1538 1544 1547 1548 1550 1554 1555 1557 1560 1558 1560 1563 1564 1576 1580 1569 1554 1538 1531 1534 1533 1533 1534 1534 1535 1533 1533 1533 1531 1531 1530 1529
1410 1413 1417 1420 1422 1425 1427 1430 1433 1437 1441 1444 1448 1451 1455 1461 1465 1478 1486 1471 1463 1475 1477 1476 1479 1478 1480 1482 1486 1489 1489 1491 1492 1492 1495 1497 1499 1500 1503 1507 1509 1514 1519 1520 1524 1528 1528 1527 1529 1530 1530 1532 1534 1537 1542 1542 1542 1543 1542 1543 1549 1556 1558 1558 1562 1562 1561 1563 1568 1580 1583 1574 1560 1539 1529 1532 1533 1534 1534 1533 1534 1534 1533 1534 1532 1532 1531 1531
1409 1412 1417 1420 1423 1426 1428 1430 1432 1437 1441 1443 1448 1450 1453 1464 1469 1470 1471 1463 1463 1473 1473 1474 1476 1477 1479 1480 1484 1488 1489 1492 1493 1492 1495 1497 1500 1501 1502 1504 1506 1514 1522 1523 1525 1528 1528 1528 1531 1531 1531 1531 1530 1537 1546 1546 1544 1543 1541 1544 1550 1561 1566 1562 1566 1570 1567 1565 1572 1581 1580 1570 1558 1538 1529 1531 1530 1532 1534 1532 1533 1534 1534 1534 1533 1533 1532 1532
1409 1413 1417 1421 1424 1426 1427 1430 1433 1436 1439 1443 1448 1450 1454 1466 1466 1459 1461 1461 1460 1465 1466 1469 1472 1475 1478 1480 1485 1488 1488 1491 1493 1493 1495 1496 1500 1502 1503 1504 1503 1506 1515 1522 1525 1527 1529 1531 1531 1531 1531 1530 1527 1533 1542 1543 1543 1542 1541 1542 1547 1560 1568 1567 1576 1580 1570 1566 1575 1584 1576 1562 1552 1537 1527 1528 1528 1530 1532 1531 1532 1533 1534 1534 1533 1534 1533 1533
1410 1414 1418 1421 1425 1427 1427 1430 1433 1435 1439 1442 1445 1450 1457 1461 1456 1450 1457 1461 1460 1463 1465 1466 1472 1476 1477 1480 1484 1484 1486 1493 1494 1493 1496 1498 1500 1503 1502 1504 1504 1502 1508 1520 1524 1523 1527 1529 1528 1528 1529 1529 1528 1529 1531 1534 1539 1542 1543 1541 1541 1547 1551 1557 1565 1562 1558 1567 1577 1580 1566 1547 1538 1530 1525 1526 1527 1529 1529 1529 1531 1532 1534 1534 1533 1534 1533 1533
1412 1415 1419 1422 1425 1427 1427 1430 1432 1435 1438 1440 1444 1451 1453 1450 1448 1448 1453 1458 1461 1464 1466 1467 1471 1476 1480 1482 1483 1482 1483 1490 1495 1495 1496 1497 1498 1500 1499 1499 1503 1503 1505 1515 1521 1522 1524 1525 1527 1529 1528 1527 1529 1529 1529 1531 1537 1545 1546 1543 1541 1539 1541 1560 1574 1568 1566 1570 1570 1570 1558 1541 1533 1526 1525 1528 1526 1527 1528 1528 1530 1532 1533 1534 1533 1534 1534 1534
1412 1415 1419 1422 1424 1426 1427 1429 1432 1435 1437 1439 1444 1448 1445 1441 1444 1445 1445 1450 1455 1459 1465 1471 1473 1476 1482 1484 1484 1484 1482 1486 1493 1495 1496 1498 1497 1497 1496 1495 1498 1500 1498 1504 1515 1521 1522 1525 1529 1530 1529 1529 1529 1529 1530 1529 1533 1543 1545 1542 1543 1543 1543 1559 1579 1584 1578 1564 1557 1562 1552 1539 1535 1525 1522 1527 1524 1525 1527 1526 1529 1531 1532 1533 1533 1534 1535 1534
1411 1415 1419 1421 1423 1425 1427 1429 1432 1434 1436 1438 1441 1442 1440 1439 1442 1443 1442 1445 1449 1452 1458 1468 1472 1474 1478 1482 1484 1482 1481 1485 1492 1493 1494 1497 1495 1493 1494 1493 1494 1496 1495 1498 1506 1511 1516 1525 1532 1530 1529 1531 1530 1530 1531 1530 1531 1537 1540 1538 1542 1547 1545 1546 1557 1572 1577 1564 1556 1560 1552 1541 1539 1528 1520 1524 1522 1522 1526 1526 1528 1530 1530 1532 1533 1533 1534 1535
1410 1414 1418 1420 1423 1425 1426 1429 1432 1434 1437 1439 1438 1439 1440 1440 1441 1443 1443 1443 1447 1449 1451 1459 1466 1468 1471 1476 1479 1480 1479 1482 1489 1491 1492 1495 1490 1485 1488 1491 1492 1494 1495 1495 1500 1505 1509 1520 1532 1534 1531 1532 1531 1530 1531 1533 1533 1533 1533 1535 1537 1541 1543 1545 1550 1556 1564 1565 1557 1558 1562 1554 1543 1531 1519 1518 1519 1520 1524 1526 1527 1528 1529 1530 1531 1533 1534 1535
1410 1413 1417 1419 1422 1425 1426 1429 1432 1434 1437 1438 1437 1438 1440 1441 1442 1443 1443 1443 1445 1447 1449 1453 1459 1465 1469 1469 1472 1477 1477 1478 1485 1488 1486 1490 1487 1482 1483 1486 1489 1494 1495 1494 1498 1503 1506 1513 1527 1534 1532 1532 1532 1529 1529 1532 1535 1535 1535 1537 1537 1538 1540 1543 1548 1547 1548 1559 1558 1554 1556 1546 1535 1529 1517 1513 1517 1519 1522 1526 1526 1527 1528 1528 1530 1532 1533 1534
1409 1411 1416 1419 1421 1424 1426 1430 1433 1435 1436 1436 1435 1437 1440 1441 1442 1443 1442 1443 1444 1445 1448 1451 1454 1460 1466 1468 1469 1473 1475 1476 1481 1481 1479 1483 1484 1482 1482 1482 1486 1492 1495 1496 1497 1502 1506 1508 1520 1533 1535 1532 1530 1528 1526 1526 1530 1534 1535 1537 1537 1541 1544 1542 1547 1550 1544 1549 1555 1551 1544 1531 1523 1524 1516 1512 1518 1519 1520 1523 1523 1525 1526 1527 1529 1530 1531 1533
1409 1411 1416 1418 1420 1422 1425 1430 1433 1434 1435 1435 1435 1437 1439 1439 1441 1443 1443 1443 1444 1445 1446 1449 1452 1455 1460 1465 1467 1469 1474 1477 1478 1478 1478 1480 1479 1478 1479 1479 1482 1488 1494 1497 1497 1499 1504 1507 1518 1532 1533 1529 1527 1528 1529 1527 1526 1527 1527 1529 1530 1534 1541 1539 1544 1553 1550 1547 1552 1552 1542 1525 1518 1520 1518 1516 1518 1518 1520 1521 1521 1523 1525 1526 1529 1529 1531 1533
1409 1412 1415 1416 1418 1420 1423 1428 1432 1432 1434 1435 1434 1436 1438 1438 1440 1442 1442 1443 1444 1445 1446 1448 1451 1454 1456 1460 1463 1466 1471 1474 1477 1476 1474 1474 1474 1474 1475 1477 1480 1483 1487 1494 1495 1496 1501 1508 1519 1529 1529 1528 1530 1531 1532 1530 1528 1527 1525 1527 1528 1528 1529 1529 1533 1545 1553 1556 1558 1557 1547 1526 1516 1521 1520 1518 1519 1518 1519 1521 1521 1522 1524 1526 1528 1529 1531 1532
1410 1413 1414 1415 1417 1419 1422 1428 1432 1433 1434 1434 1434 1435 1436 1437 1440 1441 1442 1443 1443 1445 1447 1448 1450 1453 1455 1458 1461 1463 1466 1470 1474 1473 1471 1472 1473 1473 1475 1476 1479 1482 1485 1490 1494 1495 1499 1503 1514 1526 1529 1529 1529 1529 1531 1531 1529 1528 1526 1527 1528 1526 1524 1525 1530 1536 1544 1550 1552 1555 1548 1525 1515 1521 1520 1517 1519 1518 1518 1520 1521 1522 1523 1525 1527 1528 1530 1531
1411 1413 1415 1416 1418 1419 1421 1423 1427 1432 1434 1434 1434 1436 1437 1437 1439 1440 1441 1442 1443 1444 1446 1448 1450 1451 1453 1456 1458 1459 1462 1465 1470 1471 1471 1472 1472 1473 1476 1475 1477 1480 1481 1483 1485 1489 1495 1498 1507 1522 1530 1530 1531 1531 1530 1529 1529 1525 1524 1526 1526 1525 1528 1532 1535 1537 1537 1540 1540 1541 1537 1522 1515 1520 1519 1516 1517 1516 1517 1520 1520 1522 1523 1524 1526 1528 1529 1530
1412 1414 1416 1417 1418 1419 1421 1421 1423 1429 1434 1433 1434 1436 1437 1438 1439 1439 1441 1442 1443 1444 1444 1447 1449 1449 1453 1456 1457 1459 1460 1461 1465 1469 1471 1472 1473 1475 1476 1476 1477 1478 1478 1479 1479 1483 1491 1496 1499 1509 1519 1522 1523 1523 1517 1516 1522 1523 1522 1524 1524 1525 1527 1526 1532 1536 1533 1537 1538 1529 1523 1519 1517 1517 1516 1516 1517 1516 1518 1520 1520 1522 1523 1523 1526 1527 1528 1528
1411 1414 1417 1418 1419 1420 1421 1422 1422 1427 1431 1432 1435 1436 1436 1438 1440 1440 1440 1442 1444 1444 1444 1447 1448 1449 1452 1454 1456 1459 1461 1463 1464 1466 1469 1472 1473 1476 1476 1476 1478 1478 1479 1480 1479 1483 1491 1495 1494 1494 1498 1500 1500 1501 1500 1502 1511 1517 1519 1521 1522 1525 1524 1523 1530 1531 1528 1537 1540 1525 1517 1518 1516 1515 1516 1515 1516 1516 1518 1519 1520 1521 1522 1523 1524 1525 1526 1527
1411 1414 1416 1417 1420 1421 1422 1423 1423 1425 1428 1429 1433 1435 1436 1438 1440 1441 1441 1442 1443 1444 1445 1447 1448 1448 1450 1452 1456 1458 1460 1464 1465 1465 1469 1472 1474 1477 1477 1476 1478 1479 1480 1481 1480 1484 1489 1492 1493 1490 1490 1492 1492 1495 1498 1499 1504 1509 1514 1519 1522 1523 1524 1524 1523 1520 1521 1531 1530 1519 1517 1518 1513 1514 1515 1514 1515 1516 1516 1516 1517 1519 1521 1523 1523 1523 1524 1525
1412 1413 1414 1415 1417 1418 1420 1421 1422 1425 1427 1429 1431 1434 1436 1438 1439 1440 1442 1443 1443 1443 1445 1447 1448 1447 1448 1449 1452 1457 1461 1464 1465 1467 1470 1471 1473 1476 1477 1478 1480 1479 1480 1482 1481 1483 1486 1489 1492 1492 1492 1494 1496 1497 1499 1498 1500 1506 1511 1514 1518 1522 1523 1521 1517 1515 1517 1518 1513 1511 1516 1514 1511 1512 1511 1510 1511 1511 1511 1513 1515 1517 1520 1521 1522 1522 1523 1524
1412 1413 1415 1415 1415 1416 1417 1418 1422 1426 1428 1429 1431 1433 1435 1437 1438 1438 1440 1443 1445 1444 1444 1446 1448 1448 1449 1449 1449 1454 1459 1460 1463 1467 1469 1470 1472 1474 1475 1477 1479 1479 1480 1482 1483 1483 1484 1486 1491 1493 1493 1495 1498 1500 1500 1499 1501 1506 1510 1511 1514 1517 1517 1514 1511 1511 1512 1509 1507 1512 1513 1508 1507 1508 1506 1507 1508 1508 1511 1514 1515 1516 1518 1519 1520 1520 1521 1522
1412 1413 1414 1416 1417 1417 1418 1418 1422 1426 1428 1429 1431 1433 1433 1434 1436 1436 1438 1441 1443 1445 1444 1445 1447 1448 1450 1451 1450 1453 1455 1455 1457 1461 1464 1467 1469 1471 1472 1471 1474 1479 1480 1481 1483 1484 1483 1487 1491 1492 1493 1496 1499 1501 1503 1504 1502 1503 1509 1513 1514 1515 1514 1511 1507 1509 1512 1512 1512 1516 1514 1507 1506 1506 1505 1506 1508 1509 1512 1513 1512 1514 1516 1517 1518 1518 1519 1519
1413 1414 1414 1416 1418 1419 1419 1419 1421 1424 1428 1429 1430 1431 1431 1432 1433 1435 1438 1438 1439 1442 1444 1446 1448 1449 1451 1452 1452 1454 1456 1455 1455 1457 1459 1462 1464 1465 1467 1466 1469 1475 1478 1480 1482 1481 1483 1488 1492 1493 1493 1495 1500 1504 1507 1508 1506 1506 1509 1512 1512 1511 1509 1506 1505 1506 1509 1509 1513 1519 1514 1504 1503 1505 1505 1505 1506 1508 1509 1509 1511 1513 1514 1515 1516 1516 1517 1518
1415 1415 1415 1416 1419 1421 1421 1420 1421 1423 1425 1426 1427 1430 1430 1430 1431 1434 1438 1440 1439 1440 1443 1445 1447 1449 1452 1453 1453 1455 1456 1456 1456 1458 1460 1461 1462 1463 1465 1466 1467 1471 1474 1478 1480 1481 1483 1484 1488 1492 1491 1495 1507 1511 1506 1507 1510 1507 1500 1498 1501 1503 1501 1502 1505 1505 1503 1504 1509 1512 1503 1494 1498 1502 1502 1503 1505 1505 1505 1506 1509 1510 1511 1513 1513 1514 1515 1516